Location: Newark
(42.8200°N, 13.1900°E)
Time: 12:05:41
(UTC+00:00)

STARLINK-1262 - Pass Details

Date: 07 April 2020
Orbit: 549 x 550 km, 53.0° (Epoch: 06 June)

Event Time Altitude Azimuth Distance (km) Brightness Sun altitude
Exits shadow 00:51:23 15° 34° (NE) 1,537 6.6 -35.1°
Drops below altitude 10° 00:52:17 10° 42° (NE) 1,833 7.0 -35.0°
Enters shadow 01:54:41 -60° 258° (WSW) 11,687 10.4 -27.7°
